Terug naar catalogus

STARLINK-34526

ActiefCommunicatieVLEO
NORAD 64481·PAYLOAD·🇺🇸 United States

Gelanceerd Jun 23, 2025 vanaf Cape Canaveral Space Force Station

Loading…

Volgende Passages (komende 24 uur)

TLE

VersSource: CelesTrak SupGP

Epoch: Sep 15, 2026, 03:32 UTC

1 64481C 25133K   26258.14770833  .00039804  00000+0  11759-2 0  2589
2 64481  53.1588 314.8743 0001249  90.2609 220.6747 15.34374684    11

Volg STARLINK-34526 in realtime met AllMySat

Download on the App Store